Location: Gollag?dem
(16.8053°N, 80.8024°E)
Time: 10:11:45
(UTC+00:00)

Cosmos 1400 Rocket - Pass Details

Date: 13 August 2020
Orbit: 522 x 567 km, 81.2° (Epoch: 18 September)

Event Time Altitude Azimuth Distance (km) Brightness Sun altitude
Exits shadow 23:10:10 20° 197° (SSW) 1,259 4.3 -16.8°
Maximum altitude 23:12:45 66° 276° (W) 581 2.6 -16.2°
Drops below altitude 10° 23:16:36 10° 359° (N) 1,768 5.6 -15.3°
Sets 23:18:45 0° 2° (N) 2,653 6.6 -14.9°
